Probability
19 16 19 23 13 16 16 13 13 10 6 6 10 10 13 10 16 23 39 61 74 77 77 68 61 61 55 52 55 65 55 39 35 42 39 26 29 26 13 19 23 19 16
10 10 10 6 10 10 13 16 13 6 3 3 6 3 6 10 13 19 23 52 71 74 77 71 65 55 55 52 52 48 45 39 35 35 32 39 39 29 19 16 16 16 16
6 6 6 6 6 3 3 10 3 3 6 3 3 0 3 3 3 3 16 39 52 68 71 74 74 71 71 55 55 52 55 42 45 39 39 42 32 35 32 29 16 19 13
10 6 6 6 3 3 3 10 6 6 6 3 0 0 6 10 3 3 6 13 35 42 61 68 77 74 74 71 61 58 58 65 45 35 26 23 26 29 26 23 23 19 13
13 6 10 6 3 3 3 10 10 6 10 3 3 0 3 3 3 3 6 10 10 23 42 45 77 84 71 71 74 71 68 58 58 48 29 26 26 23 23 29 23 23 19
29 10 6 10 3 6 6 6 10 3 6 6 0 0 3 3 3 3 3 3 6 6 6 6 45 58 68 74 71 68 68 61 58 45 35 32 26 29 19 19 19 19 16
29 16 10 13 6 10 10 10 10 3 3 0 3 0 0 0 0 0 0 3 3 3 3 6 6 10 29 48 71 74 71 71 65 58 48 39 42 42 32 23 23 19 16
29 19 10 10 10 10 6 3 0 0 0 0 0 0 0 0 0 0 3 3 3 3 3 3 3 6 10 13 16 39 61 65 65 68 61 58 45 42 32 32 19 19 16
32 26 13 6 6 6 6 6 3 0 0 0 0 0 0 0 0 0 0 0 3 3 0 3 3 6 6 6 6 6 26 61 55 58 68 65 48 39 35 29 26 23 16
19 19 13 6 6 6 6 6 6 0 0 0 0 0 0 0 0 0 0 0 0 0 0 0 3 6 6 6 6 3 3 16 35 42 61 68 52 39 29 26 26 23 19
16 16 13 6 6 6 6 6 6 6 3 3 3 3 3 0 0 0 0 0 0 0 0 0 0 3 3 6 6 6 3 3 6 19 42 42 48 45 32 35 32 19 19
10 13 16 10 6 6 6 6 6 6 6 3 3 3 3 3 0 0 0 0 0 0 0 0 0 0 3 3 3 3 3 3 3 0 3 10 35 39 35 35 29 26 26
10 13 13 6 6 6 6 6 6 6 6 6 0 0 0 0 0 0 0 0 0 0 0 0 0 0 0 3 3 3 3 3 3 0 0 0 3 6 13 26 23 23 19
6 10 13 6 6 10 6 6 6 6 6 6 6 3 0 0 0 0 0 0 0 0 0 0 0 0 0 0 0 0 3 3 3 0 0 0 0 0 0 0 0 0 0
3 10 10 10 6 10 10 10 6 6 6 6 6 6 6 3 0 0 0 0 0 0 0 0 0 0 0 0 0 0 3 0 0 0 0 0 0 0 0 0 0 0 0
3 3 6 6 6 6 10 10 6 6 6 6 6 6 6 6 3 3 0 0 0 0 0 0 0 0 0 0 0 0 0 0 0 0 0 0 0 0 0 0 0 0 0
3 3 6 6 6 6 6 6 6 6 6 6 6 3 3 6 3 3 3 3 0 0 0 0 0 0 0 0 0 0 0 0 0 0 0 0 0 0 0 0 0 0 0
10 10 10 6 6 6 6 6 6 10 10 6 6 3 3 3 3 3 3 3 3 0 0 0 0 0 0 0 0 0 0 0 0 0 0 0 0 0 0 0 0 0 0
16 13 13 13 6 6 6 6 6 6 10 6 6 6 6 3 3 0 0 0 0 0 0 0 0 0 0 0 0 0 0 0 0 0 0 0 0 0 0 0 0 0 0
13 16 16 13 13 10 6 6 6 6 6 6 3 3 3 3 3 0 0 3 0 0 0 0 0 0 0 0 0 0 0 0 0 0 0 0 0 0 0 0 0 0 0
13 10 10 10 10 10 10 10 3 6 6 6 3 0 3 0 0 0 0 3 3 0 0 0 0 0 0 0 0 0 0 0 0 0 0 0 0 0 0 0 0 0 0
10 10 10 10 10 6 3 0 0 3 3 3 3 3 3 0 0 0 0 0 0 0 0 0 0 0 0 0 0 0 0 0 0 0 0 0 0 0 0 0 0 0 0
10 10 10 10 6 6 0 0 0 0 0 0 3 3 3 3 0 0 0 0 0 0 0 0 0 0 0 0 0 0 0 0 0 0 0 0 0 0 0 0 0 0 0
10 6 6 6 6 3 3 0 0 0 0 0 0 0 0 0 0 3 3 3 3 0 0 0 0 0 0 0 0 0 0 0 0 0 0 0 0 0 0 0 0 0 0
3 0 0 0 3 3 0 0 0 0 0 0 0 0 0 3 0 0 0 3 3 3 0 0 0 0 0 0 0 0 0 0 0 0 0 0 0 0 0 0 0 0 0
0 0 0 0 0 0 0 0 0 0 0 0 0 3 0 0 0 0 0 0 0 3 3 3 0 0 0 0 0 0 0 0 0 0 0 0 0 0 0 0 0 0 0
Height
5903 5904 5904 5904 5905 5905 5905 5905 5905 5905 5904 5905 5905 5905 5904 5905 5904 5905 5905 5905 5905 5905 5905 5905 5905 5906 5906 5906 5906 5906 5906 5907 5907 5907 5907 5907 5907 5908 5908 5908 5908 5908 5908
5903 5903 5904 5904 5905 5905 5905 5905 5905 5905 5905 5905 5905 5905 5905 5905 5905 5905 5905 5905 5905 5905 5906 5906 5906 5906 5906 5906 5906 5907 5907 5907 5907 5907 5907 5907 5907 5908 5908 5908 5908 5908 5908
5902 5903 5904 5904 5905 5905 5905 5905 5905 5905 5905 5905 5905 5905 5905 5905 5905 5906 5906 5906 5906 5906 5906 5906 5906 5906 5906 5906 5906 5907 5907 5907 5907 5907 5907 5907 5907 5907 5907 5907 5907 5907 5907
5901 5902 5903 5903 5904 5904 5904 5905 5905 5905 5905 5905 5905 5905 5905 5905 5906 5906 5906 5906 5906 5906 5906 5906 5906 5906 5906 5906 5906 5906 5906 5906 5906 5906 5906 5907 5907 5906 5906 5906 5906 5906 5906
5900 5901 5902 5903 5903 5904 5904 5904 5905 5905 5905 5905 5905 5905 5905 5905 5905 5906 5906 5906 5906 5906 5906 5906 5906 5906 5906 5906 5906 5906 5906 5906 5906 5906 5906 5906 5906 5905 5905 5905 5905 5905 5905
5899 5900 5900 5901 5902 5903 5903 5903 5904 5904 5904 5904 5904 5904 5904 5905 5905 5905 5905 5906 5906 5905 5905 5905 5905 5905 5905 5905 5905 5905 5905 5905 5904 5904 5904 5904 5904 5904 5904 5904 5904 5903 5903
5897 5898 5899 5900 5900 5901 5902 5902 5903 5903 5903 5903 5904 5904 5904 5904 5904 5904 5904 5905 5905 5905 5905 5905 5904 5904 5904 5904 5904 5904 5903 5903 5903 5903 5903 5903 5903 5902 5902 5902 5902 5902 5901
5895 5896 5897 5898 5898 5899 5900 5901 5901 5901 5902 5902 5903 5902 5903 5903 5903 5903 5903 5903 5903 5903 5903 5903 5903 5903 5902 5902 5902 5902 5902 5901 5901 5901 5901 5901 5901 5900 5900 5900 5900 5900 5899
5893 5894 5895 5896 5896 5897 5898 5898 5899 5899 5900 5900 5901 5901 5901 5901 5901 5902 5901 5901 5901 5901 5901 5901 5901 5901 5900 5900 5900 5900 5900 5900 5899 5899 5899 5898 5898 5898 5898 5898 5898 5897 5897
5891 5892 5893 5894 5894 5895 5895 5896 5896 5897 5897 5898 5898 5899 5899 5899 5899 5899 5899 5899 5899 5899 5899 5899 5899 5898 5898 5898 5898 5897 5897 5897 5897 5896 5896 5896 5896 5896 5895 5895 5895 5894 5894
5888 5889 5889 5890 5891 5892 5892 5893 5893 5893 5894 5895 5895 5896 5896 5896 5896 5896 5897 5897 5896 5896 5896 5896 5896 5896 5895 5895 5895 5894 5894 5894 5894 5894 5893 5893 5893 5892 5892 5892 5891 5891 5890
5885 5885 5886 5887 5888 5888 5889 5889 5889 5890 5891 5891 5892 5892 5892 5893 5893 5893 5893 5893 5893 5893 5893 5893 5892 5892 5892 5891 5891 5891 5890 5890 5890 5890 5889 5889 5889 5888 5888 5888 5887 5886 5886
5881 5882 5883 5883 5884 5884 5885 5885 5886 5887 5887 5888 5888 5888 5889 5889 5889 5889 5889 5889 5889 5889 5889 5889 5889 5888 5887 5887 5887 5886 5886 5886 5885 5885 5885 5884 5884 5883 5883 5882 5882 5881 5880
5877 5878 5879 5879 5880 5880 5881 5881 5882 5883 5883 5884 5884 5884 5884 5885 5885 5885 5885 5885 5885 5885 5885 5885 5884 5883 5882 5882 5882 5881 5881 5881 5880 5880 5879 5879 5878 5878 5877 5877 5876 5875 5874
5874 5874 5875 5875 5876 5876 5877 5877 5878 5878 5879 5880 5880 5880 5880 5880 5880 5880 5880 5880 5881 5880 5880 5879 5879 5878 5877 5876 5876 5876 5875 5875 5874 5874 5873 5872 5872 5871 5870 5870 5869 5868 5867
5871 5871 5871 5871 5872 5872 5873 5873 5874 5874 5874 5875 5875 5875 5876 5875 5875 5875 5875 5875 5875 5875 5874 5874 5873 5872 5871 5870 5870 5870 5869 5868 5868 5867 5867 5866 5865 5864 5863 5862 5861 5860 5859
5867 5868 5867 5867 5867 5868 5868 5869 5869 5869 5870 5870 5870 5870 5870 5870 5870 5870 5869 5869 5869 5868 5868 5868 5867 5866 5865 5864 5863 5863 5862 5861 5861 5860 5859 5858 5857 5856 5855 5854 5853 5851 5850
5864 5864 5863 5863 5863 5864 5864 5864 5864 5865 5865 5865 5865 5865 5865 5864 5864 5864 5863 5863 5862 5862 5861 5861 5860 5859 5858 5857 5856 5856 5855 5854 5853 5852 5851 5850 5849 5848 5846 5845 5844 5843 5841
5860 5860 5859 5859 5859 5859 5860 5860 5860 5860 5860 5860 5860 5859 5859 5858 5858 5857 5856 5856 5855 5855 5854 5854 5853 5852 5851 5850 5849 5848 5847 5846 5845 5844 5843 5841 5840 5839 5837 5836 5835 5833 5832
5856 5856 5855 5855 5855 5855 5855 5855 5855 5855 5855 5854 5854 5853 5853 5852 5851 5850 5850 5849 5848 5848 5847 5846 5845 5844 5843 5842 5841 5840 5839 5838 5837 5835 5833 5832 5831 5829 5828 5826 5825 5823 5822
5852 5852 5851 5851 5851 5851 5851 5850 5850 5850 5849 5849 5848 5847 5846 5845 5844 5843 5842 5842 5841 5840 5839 5838 5837 5836 5835 5833 5832 5831 5830 5828 5827 5826 5824 5822 5821 5819 5818 5816 5814 5813 5811
5848 5848 5847 5847 5846 5846 5846 5846 5845 5844 5844 5843 5842 5841 5840 5839 5838 5837 5836 5835 5833 5832 5832 5830 5829 5828 5827 5825 5824 5822 5821 5819 5818 5817 5814 5812 5810 5809 5807 5805 5803 5801 5799
5844 5844 5843 5843 5842 5842 5841 5841 5840 5839 5839 5838 5837 5836 5834 5833 5832 5830 5829 5828 5826 5825 5824 5822 5821 5820 5818 5817 5815 5814 5812 5810 5809 5807 5805 5803 5801 5798 5796 5794 5792 5789 5787
5840 5839 5839 5838 5838 5837 5836 5836 5835 5834 5833 5832 5831 5830 5829 5827 5826 5824 5823 5821 5819 5818 5816 5814 5813 5812 5810 5808 5806 5805 5803 5800 5799 5797 5795 5793 5790 5788 5785 5783 5780 5777 5775
5835 5835 5834 5834 5833 5832 5831 5831 5830 5829 5828 5827 5825 5824 5823 5821 5819 5818 5816 5815 5813 5811 5809 5807 5806 5804 5802 5799 5797 5795 5793 5791 5788 5786 5784 5781 5779 5776 5773 5771 5767 5764 5762
5831 5830 5830 5829 5828 5827 5826 5825 5824 5823 5822 5821 5820 5818 5817 5815 5813 5811 5810 5808 5806 5804 5802 5800 5798 5796 5793 5791 5788 5786 5783 5781 5778 5776 5773 5770 5767 5764 5761 5758 5755 5751 5748
Wind_Speed
1 1 1 1 2 2 2 3 3 2 2 2 3 3 3 4 4 3 3 3 2 2 1 1 1 0 0 0 0 0 1 1 1 1 1 1 1 1 2 2 2 2 2
1 1 1 1 1 1 2 2 2 2 2 2 2 2 2 3 4 3 3 2 2 1 1 0 0 0 1 1 1 1 1 1 1 1 2 2 2 2 2 3 3 3 4
3 2 2 2 2 1 1 1 2 1 1 0 0 1 2 2 2 2 2 2 1 1 0 0 0 1 1 1 2 2 2 2 2 3 3 3 4 4 4 5 5 5 5
4 4 4 4 3 3 2 1 1 1 1 0 0 0 0 1 1 2 1 1 1 1 0 1 2 2 2 3 3 3 3 3 3 4 4 5 5 5 5 6 6 6 6
6 6 6 5 5 5 4 3 3 2 2 1 1 1 1 1 1 1 2 2 2 2 2 2 3 3 4 4 5 5 5 6 6 6 6 6 7 7 7 7 6 6 6
7 7 8 7 7 7 6 5 5 4 4 3 3 3 3 3 3 2 2 3 3 3 3 4 4 4 5 6 6 6 7 7 8 8 8 8 8 8 8 8 8 8 8
8 8 9 10 9 9 8 7 6 6 5 5 5 4 4 4 4 4 4 4 4 4 5 5 6 6 6 7 7 8 8 8 9 9 9 9 9 9 9 9 9 9 9
9 10 9 10 10 9 9 9 8 8 8 7 7 7 7 6 6 5 6 6 6 6 7 7 7 7 8 8 8 9 9 9 9 10 10 10 10 10 10 11 11 11 10
10 10 11 11 11 11 11 11 10 10 10 10 9 9 9 8 8 8 8 8 8 8 8 9 9 9 9 10 10 10 10 10 10 10 11 11 11 11 11 12 12 12 13
11 12 13 12 12 13 13 13 13 13 13 12 12 12 12 11 11 10 10 10 10 10 10 10 10 11 11 12 12 12 12 12 12 12 12 12 13 13 13 14 14 14 15
13 14 14 14 14 14 15 16 15 15 14 14 14 14 14 14 14 14 13 13 13 12 12 12 13 13 14 14 14 14 14 14 14 14 14 15 15 16 16 17 17 17 17
14 14 15 16 16 17 17 18 17 16 16 16 16 16 16 16 16 16 16 16 16 15 15 15 15 15 16 16 16 16 16 16 17 17 17 18 18 19 19 20 20 20 21
15 16 16 17 17 17 18 18 18 18 17 17 17 17 17 18 18 18 18 18 18 18 18 18 18 19 18 18 18 19 19 20 20 20 20 21 21 22 22 23 23 23 24
15 15 15 16 17 17 18 19 19 18 18 18 19 19 18 19 19 20 20 20 20 20 20 20 20 21 21 21 21 21 22 22 22 22 23 24 24 25 25 26 26 27 27
14 14 15 16 16 17 18 18 19 19 19 20 20 20 20 21 21 21 21 21 21 21 22 22 22 23 23 23 24 25 24 24 24 25 25 26 26 27 28 28 29 30 30
13 14 15 16 16 17 17 18 19 20 20 20 21 21 21 22 22 22 22 23 24 24 23 24 24 24 25 25 25 26 27 27 27 27 28 29 29 30 30 30 31 32 32
14 15 15 16 17 17 18 18 18 19 20 20 21 21 22 23 24 24 25 25 25 25 25 26 27 27 27 27 27 28 29 29 29 29 30 31 31 32 32 32 32 32 33
14 15 15 16 17 17 18 18 18 18 19 20 21 22 23 24 25 26 26 27 27 27 27 27 28 29 29 29 28 29 29 30 31 31 32 33 34 34 33 33 33 34 33
15 15 15 16 16 17 18 19 19 20 20 21 21 22 24 25 25 26 26 27 27 27 28 28 29 30 30 30 30 31 31 31 32 32 33 33 34 34 34 34 35 34 35
15 15 15 16 17 18 18 19 20 21 21 21 22 23 24 24 25 25 26 26 27 28 29 30 29 30 31 32 32 31 32 33 33 33 34 35 35 35 35 35 35 36 38
15 16 16 17 17 18 19 19 20 20 21 22 22 23 24 25 25 25 25 26 27 28 29 29 30 30 31 31 31 31 32 33 34 34 36 36 36 37 37 37 38 39 40
16 16 16 16 16 17 18 19 20 21 21 22 22 22 22 23 25 25 26 26 27 28 30 31 31 31 30 31 31 32 33 34 34 35 36 37 37 38 38 39 40 41 42
15 16 16 16 16 17 18 19 20 21 21 21 21 22 22 23 24 24 25 27 28 29 30 32 30 30 31 32 32 33 34 35 35 36 37 38 39 39 40 41 42 43 43
16 16 16 17 17 17 18 19 20 20 21 21 22 23 23 24 24 24 25 25 26 27 28 29 30 30 32 32 33 34 35 36 37 37 38 39 40 40 41 42 44 44 45
16 17 17 18 19 19 20 20 21 21 22 23 23 24 24 24 24 25 25 25 26 27 27 28 29 30 30 31 32 33 35 36 36 37 38 39 39 40 41 43 44 46 47
17 17 18 18 19 19 20 20 21 22 23 23 23 24 24 25 26 26 27 27 27 28 29 29 30 31 31 32 33 35 36 37 38 38 39 40 40 42 42 44 45 47 48
Wind_Direction
35 53 67 56 34 33 36 35 33 34 40 43 43 51 54 55 51 61 73 79 79 79 73 96 137 118 42 80 142 166 198 239 241 249 248 246 264 281 293 303 300 299 298
250 243 257 280 320 7 20 19 12 22 27 25 36 47 53 44 48 59 64 70 76 76 65 64 91 10 352 313 273 270 261 262 259 262 265 269 272 281 288 291 293 291 293
236 234 245 255 263 266 330 360 352 356 19 29 15 44 58 52 44 48 51 58 63 79 97 325 306 297 301 293 274 276 275 272 259 260 262 268 272 276 280 284 288 287 285
239 240 243 248 253 252 249 283 326 340 2 271 278 271 62 41 16 13 8 3 22 29 281 286 285 284 282 279 276 271 269 271 271 268 266 269 270 275 281 283 285 284 283
242 248 247 250 255 254 253 256 262 285 296 282 268 250 260 298 310 327 322 312 309 299 283 284 287 282 278 277 273 273 273 274 273 274 274 274 275 275 278 277 278 277 277
247 246 247 251 252 252 254 254 253 262 274 279 273 256 258 270 271 275 280 284 288 293 288 286 289 288 282 275 272 274 276 276 277 275 274 274 276 277 274 274 274 274 275
251 249 247 248 250 252 254 254 254 260 269 270 270 261 264 272 279 270 269 269 277 288 291 287 286 286 284 279 275 276 277 276 276 276 274 275 275 276 275 273 274 274 275
249 251 250 249 250 251 252 255 260 262 263 264 267 264 264 268 272 273 268 268 270 277 282 283 283 282 281 280 278 280 280 279 276 275 275 275 273 274 275 275 275 276 276
249 248 248 248 249 253 256 259 261 262 262 262 265 266 264 267 267 269 268 268 271 274 277 277 278 278 277 279 279 278 276 276 278 277 274 273 272 272 273 275 275 275 276
254 253 248 249 251 253 258 262 263 262 261 261 260 262 264 264 266 265 266 268 271 274 277 278 276 276 277 278 278 277 274 274 275 276 275 274 273 272 272 273 275 276 279
254 251 248 247 251 254 257 260 262 261 260 261 261 263 264 264 265 265 265 268 271 273 274 277 277 276 277 276 275 274 272 270 271 273 273 273 273 273 274 275 276 277 278
253 251 249 249 250 254 257 259 260 259 260 260 261 264 264 263 264 264 264 266 270 272 274 278 279 277 278 276 273 273 272 271 271 272 273 274 274 274 275 275 276 277 276
253 252 252 251 252 255 259 259 259 257 259 260 262 264 264 263 264 265 266 265 266 269 272 277 279 277 276 275 272 271 272 272 272 272 273 274 274 274 273 274 275 277 277
257 254 253 253 255 257 258 257 256 257 260 262 263 265 265 265 265 266 267 267 268 269 272 275 276 276 275 275 273 272 272 272 273 273 275 275 275 274 273 274 275 276 277
260 257 257 258 257 257 256 254 255 258 259 262 265 265 265 267 267 267 267 268 269 269 271 273 276 276 275 275 274 273 272 273 275 276 276 275 275 275 274 274 275 276 277
261 260 260 259 257 257 257 258 258 259 261 263 265 265 266 267 268 268 269 269 269 270 270 272 275 275 275 275 275 274 275 275 276 276 277 276 276 275 276 276 276 276 277
263 265 264 261 257 257 260 263 261 260 262 265 266 266 267 268 269 269 270 270 270 271 270 270 273 275 276 276 275 273 271 272 273 274 275 277 277 277 277 277 277 277 277
268 270 266 263 258 258 261 265 263 262 264 266 268 268 270 271 270 269 270 270 271 272 272 271 273 274 275 274 273 272 272 273 275 277 277 277 277 277 277 277 277 277 278
272 273 272 268 261 260 262 264 265 266 268 268 270 271 272 274 274 274 274 273 272 272 273 274 274 275 276 274 273 272 273 275 276 278 278 277 277 277 277 277 278 278 278
273 275 273 270 265 263 264 265 267 269 269 270 272 274 275 276 276 275 276 276 274 275 275 276 275 277 278 277 275 274 274 275 275 277 278 277 276 277 277 277 277 277 278
272 274 274 273 269 266 267 267 268 270 273 273 275 276 276 277 277 277 277 277 277 276 277 279 280 279 279 278 276 276 277 276 277 278 279 278 277 277 277 278 278 279 280
273 274 276 278 273 270 270 271 271 272 274 275 279 282 282 281 279 278 278 279 279 279 279 279 279 280 278 276 276 276 277 278 279 279 279 279 278 278 280 280 280 281 282
273 274 276 277 276 273 273 274 276 277 277 278 281 283 284 285 284 282 282 281 282 282 280 280 281 279 278 278 278 278 277 279 280 281 280 280 281 281 281 282 283 283 283
275 278 278 278 278 276 277 277 278 280 281 282 283 284 285 285 285 283 284 285 286 285 284 283 282 283 282 281 280 280 280 281 281 281 281 281 282 283 283 283 284 285 284
279 278 281 281 279 278 279 279 281 282 281 281 282 284 286 287 286 286 286 286 286 286 285 285 286 285 285 285 285 284 285 284 284 284 284 284 284 284 285 285 285 286 287
283 280 280 283 282 282 282 283 283 285 286 285 284 286 288 288 288 289 288 287 287 286 287 287 286 286 287 287 287 287 288 288 287 286 286 287 287 287 287 288 289 289 289